| time (UTC) | temp F | wind direction | speed knots | gust knots | rain 1hr in | rain 24hr in | rain mn in | humidity % | barometer mb |
| 20260508125540 | 65 | 207 | 5.2 | 13.9 | 0.00 | 0.00 | 0.00 | 45 | 1010.8 |
| 20260508125055 | 65 | 214 | 8.7 | 19.1 | 0.00 | 0.00 | 0.00 | 46 | 1010.9 |
| 20260508124605 | 65 | 219 | 8.7 | 19.1 | 0.00 | 0.00 | 0.00 | 47 | 1010.9 |
| 20260508124021 | 65 | 195 | 7.8 | 16.5 | 0.00 | 0.00 | 0.00 | 48 | 1010.9 |
| 20260508123543 | 64 | 246 | 9.6 | 17.4 | 0.00 | 0.00 | 0.00 | 48 | 1010.9 |
| 20260508123045 | 64 | 208 | 11.3 | 17.4 | 0.00 | 0.00 | 0.00 | 46 | 1010.9 |
| 20260508122554 | 65 | 234 | 9.6 | 13.9 | 0.00 | 0.00 | 0.00 | 47 | 1011.1 |
| 20260508122031 | 64 | 191 | 7.8 | 19.1 | 0.00 | 0.00 | 0.00 | 47 | 1011.1 |
| 20260508121538 | 64 | 240 | 13.0 | 19.1 | 0.00 | 0.00 | 0.00 | 46 | 1011.0 |
| 20260508121043 | 64 | 247 | 9.6 | 16.5 | 0.00 | 0.00 | 0.00 | 48 | 1011.1 |
| 20260508120556 | 64 | 213 | 7.8 | 16.5 | 0.00 | 0.00 | 0.00 | 48 | 1011.1 |
| 20260508120104 | 65 | 273 | 8.7 | 14.8 | 0.00 | 0.00 | 0.00 | 47 | 1011.0 |
| 20260508115528 | 64 | 214 | 7.8 | 16.5 | 0.00 | 0.00 | 0.00 | 48 | 1011.1 |
| 20260508115019 | 63 | 218 | 8.7 | 16.5 | 0.00 | 0.00 | 0.00 | 49 | 1011.2 |
| 20260508114534 | 63 | 210 | 7.8 | 16.5 | 0.00 | 0.00 | 0.00 | 51 | 1011.3 |
| 20260508114033 | 63 | 210 | 9.6 | 16.5 | 0.00 | 0.00 | 0.00 | 53 | 1011.5 |
| 20260508113543 | 63 | 269 | 11.3 | 17.4 | 0.00 | 0.00 | 0.00 | 53 | 1011.5 |
| 20260508113021 | 63 | 229 | 4.3 | 17.4 | 0.00 | 0.00 | 0.00 | 54 | 1011.6 |
| 20260508112542 | 62 | 241 | 5.2 | 11.3 | 0.00 | 0.00 | 0.00 | 56 | 1011.7 |
| 20260508112129 | 62 | 219 | 5.2 | 13.0 | 0.00 | 0.00 | 0.00 | 57 | 1010.1 |
| 20260508111542 | 62 | 260 | 9.6 | 13.0 | 0.00 | 0.00 | 0.00 | 56 | 1011.8 |
| 20260508111041 | 61 | 285 | 6.1 | 13.0 | 0.00 | 0.00 | 0.00 | 56 | 1011.8 |
| 20260508110521 | 62 | 238 | 7.0 | 13.0 | 0.00 | 0.00 | 0.00 | 57 | 1011.8 |
| 20260508110048 | 62 | 240 | 8.7 | 13.0 | 0.00 | 0.00 | 0.00 | 57 | 1011.8 |
| 20260508105523 | 62 | 257 | 5.2 | 13.0 | 0.00 | 0.00 | 0.00 | 57 | 1011.7 |
| 20260508105019 | 62 | 245 | 7.0 | 12.2 | 0.00 | 0.00 | 0.00 | 57 | 1011.7 |
| 20260508104536 | 62 | 264 | 6.1 | 8.7 | 0.00 | 0.00 | 0.00 | 58 | 1011.7 |
| 20260508104018 | 62 | 263 | 4.3 | 9.6 | 0.00 | 0.00 | 0.00 | 59 | 1011.8 |
| 20260508103525 | 62 | 198 | 8.7 | 12.2 | 0.00 | 0.00 | 0.00 | 58 | 1011.9 |
| 20260508103029 | 61 | 241 | 6.1 | 13.0 | 0.00 | 0.00 | 0.00 | 59 | 1012.0 |
| 20260508102646 | 62 | 228 | 7.8 | 13.0 | 0.00 | 0.00 | 0.00 | 58 | 1010.3 |
| 20260508102031 | 61 | 248 | 5.2 | 11.3 | 0.00 | 0.00 | 0.00 | 59 | 1011.9 |
| 20260508101557 | 61 | 248 | 1.7 | 10.4 | 0.00 | 0.00 | 0.00 | 61 | 1011.9 |
| 20260508101031 | 61 | 259 | 6.1 | 10.4 | 0.00 | 0.00 | 0.00 | 61 | 1011.9 |
| 20260508100519 | 61 | 270 | 4.3 | 7.8 | 0.00 | 0.00 | 0.00 | 62 | 1011.8 |
| 20260508100111 | 61 | 275 | 3.5 | 7.8 | 0.00 | 0.00 | 0.00 | 63 | 1011.8 |
| 20260508095525 | 61 | 240 | 3.5 | 11.3 | 0.00 | 0.00 | 0.00 | 65 | 1011.8 |
| 20260508095043 | 61 | 291 | 6.1 | 11.3 | 0.00 | 0.00 | 0.00 | 62 | 1011.7 |
| 20260508094543 | 63 | 286 | 7.8 | 11.3 | 0.00 | 0.00 | 0.00 | 61 | 1011.7 |
| 20260508094043 | 63 | 217 | 7.0 | 11.3 | 0.00 | 0.00 | 0.00 | 58 | 1011.6 |
| 20260508093038 | 62 | 188 | 5.2 | 11.3 | 0.00 | 0.00 | 0.00 | 60 | 1011.6 |
| 20260508092521 | 61 | 223 | 4.3 | 13.0 | 0.00 | 0.00 | 0.00 | 60 | 1011.6 |
| 20260508092028 | 61 | 245 | 9.6 | 13.0 | 0.00 | 0.00 | 0.00 | 62 | 1011.6 |
| 20260508091520 | 61 | 201 | 5.2 | 12.2 | 0.00 | 0.00 | 0.00 | 62 | 1011.6 |
| 20260508091044 | 61 | 210 | 8.7 | 12.2 | 0.00 | 0.00 | 0.00 | 63 | 1011.5 |
| 20260508090544 | 60 | 114 | 3.5 | 11.3 | 0.00 | 0.00 | 0.00 | 64 | 1011.5 |
| 20260508090100 | 60 | 207 | 9.6 | 11.3 | 0.00 | 0.00 | 0.00 | 63 | 1011.6 |
| 20260508085534 | 60 | 320 | 0.0 | 4.3 | 0.00 | 0.00 | 0.00 | 68 | 1011.7 |
| 20260508085039 | 60 | 266 | 1.7 | 4.3 | 0.00 | 0.00 | 0.00 | 68 | 1011.7 |
| 20260508084603 | 59 | 156 | 0.9 | 4.3 | 0.00 | 0.00 | 0.00 | 69 | 1011.7 |
| 20260508084032 | 59 | 187 | 0.9 | 3.5 | 0.00 | 0.00 | 0.00 | 70 | 1011.7 |
| 20260508083520 | 59 | 127 | 1.7 | 3.5 | 0.00 | 0.00 | 0.00 | 70 | 1011.6 |
| 20260508083032 | 59 | 73 | 0.0 | 3.5 | 0.00 | 0.00 | 0.00 | 70 | 1011.5 |
| 20260508082541 | 59 | 176 | 1.7 | 4.3 | 0.00 | 0.00 | 0.00 | 69 | 1011.5 |
| 20260508082040 | 60 | 152 | 1.7 | 4.3 | 0.00 | 0.00 | 0.00 | 67 | 1011.5 |
| 20260508081544 | 60 | 93 | 0.0 | 2.6 | 0.00 | 0.00 | 0.00 | 68 | 1011.4 |
| 20260508081036 | 60 | 127 | 0.9 | 2.6 | 0.00 | 0.00 | 0.00 | 67 | 1011.5 |
| 20260508080605 | 60 | 141 | 0.0 | 0.9 | 0.00 | 0.00 | 0.00 | 71 | 1011.5 |
| 20260508075540 | 59 | 124 | 0.0 | 0.9 | 0.00 | 0.00 | 0.00 | 73 | 1011.6 |
| 20260508075028 | 58 | 151 | 0.0 | 1.7 | 0.00 | 0.00 | 0.00 | 74 | 1011.6 |
| 20260508074545 | 58 | 106 | 0.9 | 1.7 | 0.00 | 0.00 | 0.00 | 76 | 1011.6 |
| 20260508073518 | 57 | 80 | 0.0 | 3.5 | 0.00 | 0.00 | 0.00 | 79 | 1011.6 |
| 20260508073026 | 56 | 87 | 0.0 | 3.5 | 0.00 | 0.00 | 0.00 | 79 | 1011.5 |
| 20260508072602 | 56 | 70 | 0.0 | 3.5 | 0.00 | 0.00 | 0.00 | 79 | 1011.5 |
| 20260508072039 | 56 | 69 | 0.0 | 3.5 | 0.00 | 0.00 | 0.00 | 79 | 1011.4 |
| 20260508071534 | 56 | 248 | 0.0 | 1.7 | 0.00 | 0.00 | 0.00 | 80 | 1011.4 |
| 20260508071108 | 56 | 296 | 0.9 | 2.6 | 0.00 | 0.00 | 0.00 | 80 | 1011.4 |
| 20260508070615 | 56 | 62 | 0.0 | 2.6 | 0.00 | 0.00 | 0.00 | 81 | 1009.9 |
| 20260508070126 | 56 | 321 | 0.0 | 0.0 | 0.00 | 0.00 | 0.00 | 81 | 1011.4 |
| 20260508065524 | 56 | 89 | 0.0 | 1.7 | 0.00 | 0.00 | 0.00 | 82 | 1011.3 |
| 20260508065113 | 55 | 70 | 0.9 | 1.7 | 0.00 | 0.00 | 0.00 | 84 | 1009.7 |
| 20260508064543 | 54 | 348 | 0.0 | 2.6 | 0.00 | 0.00 | 0.00 | 86 | 1011.2 |
| 20260508064022 | 53 | 67 | 0.9 | 2.6 | 0.00 | 0.00 | 0.00 | 87 | 1011.2 |
| 20260508063534 | 52 | 74 | 0.0 | 0.9 | 0.00 | 0.00 | 0.00 | 87 | 1011.2 |
| 20260508063041 | 52 | 68 | 0.0 | 0.9 | 0.00 | 0.00 | 0.00 | 87 | 1011.3 |
| 20260508062530 | 52 | 139 | 0.0 | 0.9 | 0.00 | 0.00 | 0.00 | 87 | 1011.2 |
| 20260508062046 | 52 | 113 | 0.0 | 0.9 | 0.00 | 0.00 | 0.00 | 88 | 1011.3 |
| 20260508061523 | 52 | 143 | 0.0 | 0.0 | 0.00 | 0.00 | 0.00 | 88 | 1011.3 |
| 20260508061022 | 52 | 141 | 0.0 | 0.0 | 0.00 | 0.00 | 0.00 | 88 | 1011.3 |
| 20260508060525 | 51 | 141 | 0.0 | 0.9 | 0.00 | 0.00 | 0.00 | 89 | 1011.3 |
| 20260508060105 | 52 | 148 | 0.0 | 0.9 | 0.00 | 0.00 | 0.00 | 89 | 1011.3 |
| 20260508055617 | 51 | 75 | 0.0 | 2.6 | 0.00 | 0.00 | 0.00 | 89 | 1009.5 |
| 20260508055022 | 51 | 86 | 0.9 | 2.6 | 0.00 | 0.00 | 0.00 | 89 | 1010.9 |
| 20260508054543 | 51 | 72 | 1.7 | 1.7 | 0.00 | 0.00 | 0.00 | 89 | 1011.0 |
| 20260508054045 | 51 | 72 | 0.0 | 1.7 | 0.00 | 0.00 | 0.00 | 89 | 1011.1 |
| 20260508053540 | 51 | 77 | 1.7 | 1.7 | 0.00 | 0.00 | 0.00 | 89 | 1011.2 |
| 20260508053018 | 51 | 63 | 0.0 | 1.7 | 0.00 | 0.00 | 0.00 | 89 | 1011.2 |
| 20260508052532 | 51 | 62 | 0.0 | 2.6 | 0.00 | 0.00 | 0.00 | 89 | 1011.1 |
| 20260508052132 | 51 | 80 | 0.9 | 2.6 | 0.00 | 0.00 | 0.00 | 89 | 1009.4 |
| 20260508051528 | 51 | 77 | 1.7 | 2.6 | 0.00 | 0.00 | 0.00 | 88 | 1011.0 |
| 20260508051026 | 51 | 60 | 1.7 | 2.6 | 0.00 | 0.00 | 0.00 | 89 | 1011.0 |
| 20260508050552 | 51 | 24 | 0.0 | 0.0 | 0.00 | 0.00 | 0.00 | 89 | 1010.9 |
| 20260508050123 | 51 | 248 | 0.0 | 0.0 | 0.00 | 0.00 | 0.00 | 89 | 1010.9 |
| 20260508045525 | 51 | 248 | 0.0 | 0.0 | 0.00 | 0.00 | 0.00 | 89 | 1010.9 |
| 20260508045030 | 51 | 216 | 0.0 | 0.0 | 0.00 | 0.00 | 0.00 | 89 | 1010.9 |
| 20260508044518 | 51 | 320 | 0.0 | 0.0 | 0.00 | 0.00 | 0.00 | 89 | 1010.9 |
| 20260508044043 | 51 | 320 | 0.0 | 0.0 | 0.00 | 0.00 | 0.00 | 89 | 1010.7 |
| 20260508043524 | 51 | 321 | 0.0 | 1.7 | 0.00 | 0.00 | 0.00 | 89 | 1010.8 |
| 20260508043112 | 51 | 321 | 0.9 | 1.7 | 0.00 | 0.00 | 0.00 | 89 | 1009.2 |
| 20260508042602 | 51 | 283 | 0.9 | 1.7 | 0.00 | 0.00 | 0.00 | 88 | 1011.0 |
| 20260508042028 | 51 | 285 | 0.0 | 0.9 | 0.00 | 0.00 | 0.00 | 89 | 1010.8 |
| 20260508041521 | 51 | 287 | 0.0 | 0.0 | 0.00 | 0.00 | 0.00 | 89 | 1010.8 |
| 20260508041030 | 51 | 302 | 0.0 | 0.0 | 0.00 | 0.00 | 0.00 | 90 | 1010.7 |
| 20260508040549 | 51 | 6 | 0.0 | 0.0 | 0.00 | 0.00 | 0.00 | 90 | 1010.6 |
| 20260508040054 | 50 | 76 | 0.0 | 1.7 | 0.00 | 0.00 | 0.00 | 90 | 1010.5 |
| 20260508035122 | 50 | 68 | 0.9 | 2.6 | 0.00 | 0.00 | 0.00 | 90 | 1008.9 |
| 20260508034039 | 50 | 332 | 0.0 | 1.7 | 0.00 | 0.00 | 0.00 | 90 | 1010.5 |
| 20260508033558 | 50 | 98 | 0.0 | 2.6 | 0.00 | 0.00 | 0.00 | 90 | 1010.5 |
| 20260508033023 | 50 | 65 | 0.9 | 3.5 | 0.00 | 0.00 | 0.00 | 90 | 1010.5 |
| 20260508032529 | 50 | 88 | 0.0 | 3.5 | 0.00 | 0.00 | 0.00 | 90 | 1010.5 |
| 20260508032024 | 50 | 104 | 1.7 | 3.5 | 0.00 | 0.00 | 0.00 | 90 | 1010.6 |
| 20260508031553 | 51 | 55 | 1.7 | 2.6 | 0.00 | 0.00 | 0.00 | 89 | 1010.6 |
| 20260508031030 | 51 | 77 | 0.0 | 1.7 | 0.00 | 0.00 | 0.00 | 89 | 1010.5 |
| 20260508030531 | 51 | 74 | 0.0 | 2.6 | 0.00 | 0.00 | 0.00 | 89 | 1010.5 |
| 20260508030046 | 51 | 60 | 0.0 | 2.6 | 0.00 | 0.00 | 0.00 | 89 | 1010.6 |
| 20260508025535 | 51 | 57 | 1.7 | 2.6 | 0.00 | 0.00 | 0.00 | 89 | 1010.6 |
| 20260508025039 | 51 | 69 | 0.9 | 2.6 | 0.00 | 0.00 | 0.00 | 89 | 1010.5 |
| 20260508024627 | 51 | 90 | 0.0 | 0.9 | 0.00 | 0.00 | 0.00 | 89 | 1008.8 |
| 20260508024022 | 51 | 74 | 0.0 | 0.0 | 0.00 | 0.00 | 0.00 | 89 | 1010.3 |
| 20260508023527 | 51 | 75 | 0.0 | 0.9 | 0.00 | 0.00 | 0.00 | 89 | 1010.4 |
| 20260508023110 | 51 | 114 | 0.0 | 4.3 | 0.00 | 0.00 | 0.00 | 90 | 1008.9 |
| 20260508022606 | 51 | 75 | 1.7 | 4.3 | 0.00 | 0.00 | 0.00 | 89 | 1008.9 |
| 20260508022037 | 51 | 82 | 1.7 | 4.3 | 0.00 | 0.00 | 0.00 | 89 | 1010.6 |
| 20260508021543 | 51 | 72 | 1.7 | 4.3 | 0.00 | 0.00 | 0.00 | 89 | 1010.5 |
| 20260508021027 | 51 | 75 | 0.9 | 4.3 | 0.00 | 0.00 | 0.00 | 89 | 1010.5 |
| 20260508020519 | 51 | 76 | 1.7 | 3.5 | 0.00 | 0.00 | 0.00 | 89 | 1010.5 |
| 20260508020123 | 51 | 73 | 1.7 | 3.5 | 0.00 | 0.00 | 0.00 | 89 | 1010.5 |
| 20260508015525 | 51 | 68 | 0.9 | 3.5 | 0.00 | 0.00 | 0.00 | 88 | 1010.5 |
| 20260508015047 | 51 | 89 | 1.7 | 3.5 | 0.00 | 0.00 | 0.00 | 88 | 1010.5 |
| 20260508014604 | 51 | 94 | 0.9 | 2.6 | 0.00 | 0.00 | 0.00 | 88 | 1010.4 |
| 20260508014043 | 51 | 68 | 1.7 | 3.5 | 0.00 | 0.00 | 0.00 | 88 | 1010.4 |
| 20260508013519 | 51 | 98 | 0.9 | 3.5 | 0.00 | 0.00 | 0.00 | 88 | 1010.5 |
| 20260508013054 | 51 | 71 | 1.7 | 4.3 | 0.00 | 0.00 | 0.00 | 88 | 1010.7 |
| 20260508012536 | 51 | 96 | 1.7 | 5.2 | 0.00 | 0.00 | 0.00 | 88 | 1010.7 |
| 20260508012028 | 51 | 65 | 3.5 | 5.2 | 0.00 | 0.00 | 0.00 | 88 | 1010.6 |
| 20260508011550 | 51 | 62 | 1.7 | 3.5 | 0.00 | 0.00 | 0.00 | 88 | 1010.6 |
| 20260508011132 | 51 | 64 | 1.7 | 4.3 | 0.00 | 0.00 | 0.00 | 88 | 1009.1 |
| 20260508010528 | 51 | 53 | 1.7 | 4.3 | 0.00 | 0.00 | 0.00 | 88 | 1010.8 |
| 20260508010049 | 51 | 64 | 2.6 | 4.3 | 0.00 | 0.00 | 0.00 | 88 | 1010.8 |
| 20260508005519 | 51 | 77 | 1.7 | 5.2 | 0.00 | 0.00 | 0.00 | 88 | 1010.8 |
| 20260508005132 | 51 | 97 | 3.5 | 5.2 | 0.00 | 0.00 | 0.00 | 88 | 1009.2 |
| 20260508004523 | 51 | 39 | 3.5 | 5.2 | 0.00 | 0.00 | 0.00 | 87 | 1010.9 |
| 20260508004038 | 52 | 84 | 1.7 | 5.2 | 0.00 | 0.00 | 0.00 | 87 | 1011.0 |
| 20260508003522 | 52 | 65 | 2.6 | 6.1 | 0.00 | 0.00 | 0.00 | 86 | 1011.0 |
| 20260508003026 | 52 | 80 | 3.5 | 6.1 | 0.00 | 0.00 | 0.00 | 86 | 1011.1 |
| 20260508002039 | 52 | 63 | 2.6 | 6.1 | 0.00 | 0.00 | 0.00 | 86 | 1011.1 |
| 20260508001640 | 52 | 85 | 4.3 | 6.1 | 0.00 | 0.00 | 0.00 | 86 | 1009.5 |
| 20260508001104 | 52 | 75 | 2.6 | 7.0 | 0.00 | 0.00 | 0.00 | 86 | 1011.2 |
| 20260508000545 | 52 | 72 | 3.5 | 7.0 | 0.00 | 0.00 | 0.00 | 86 | 1011.2 |
| 20260508000043 | 53 | 97 | 4.3 | 7.8 | 0.00 | 0.00 | 0.00 | 85 | 1011.3 |
| 20260507235535 | 53 | 89 | 5.2 | 7.8 | 0.00 | 0.00 | 0.00 | 85 | 1011.2 |
| 20260507235119 | 53 | 65 | 3.5 | 7.8 | 0.00 | 0.00 | 0.00 | 84 | 1009.7 |
| 20260507234530 | 53 | 44 | 2.6 | 7.0 | 0.00 | 0.00 | 0.00 | 84 | 1011.3 |
| 20260507233527 | 53 | 74 | 3.5 | 6.1 | 0.00 | 0.00 | 0.00 | 83 | 1011.5 |
| 20260507233033 | 54 | 72 | 3.5 | 6.1 | 0.00 | 0.00 | 0.00 | 83 | 1011.5 |
| 20260507232523 | 54 | 58 | 3.5 | 7.8 | 0.00 | 0.00 | 0.00 | 82 | 1011.5 |
| 20260507232027 | 54 | 53 | 5.2 | 7.8 | 0.00 | 0.00 | 0.00 | 82 | 1011.5 |
| 20260507231527 | 54 | 69 | 3.5 | 7.0 | 0.00 | 0.00 | 0.00 | 82 | 1011.7 |
| 20260507231023 | 54 | 70 | 5.2 | 7.0 | 0.00 | 0.00 | 0.00 | 81 | 1011.7 |
| 20260507230607 | 54 | 82 | 3.5 | 6.1 | 0.00 | 0.00 | 0.00 | 81 | 1010.2 |
| 20260507230046 | 55 | 78 | 3.5 | 8.7 | 0.00 | 0.00 | 0.00 | 80 | 1011.8 |
| 20260507225545 | 55 | 125 | 4.3 | 8.7 | 0.00 | 0.00 | 0.00 | 80 | 1011.9 |
| 20260507224554 | 55 | 68 | 4.3 | 7.0 | 0.00 | 0.00 | 0.00 | 78 | 1011.9 |
| 20260507224028 | 55 | 100 | 3.5 | 6.1 | 0.00 | 0.00 | 0.00 | 78 | 1011.9 |
| 20260507223543 | 56 | 69 | 3.5 | 11.3 | 0.00 | 0.00 | 0.00 | 77 | 1012.0 |
| 20260507223030 | 56 | 79 | 4.3 | 11.3 | 0.00 | 0.00 | 0.00 | 76 | 1011.9 |
| 20260507222632 | 56 | 34 | 5.2 | 8.7 | 0.00 | 0.00 | 0.00 | 75 | 1010.3 |
| 20260507222033 | 57 | 86 | 7.0 | 8.7 | 0.00 | 0.00 | 0.00 | 73 | 1012.0 |
| 20260507221623 | 57 | 139 | 3.5 | 7.0 | 0.00 | 0.00 | 0.00 | 72 | 1010.4 |
| 20260507221035 | 57 | 102 | 5.2 | 7.8 | 0.00 | 0.00 | 0.00 | 71 | 1012.0 |
| 20260507220530 | 57 | 100 | 4.3 | 7.8 | 0.00 | 0.00 | 0.00 | 71 | 1012.1 |
| 20260507220116 | 57 | 72 | 4.3 | 7.8 | 0.00 | 0.00 | 0.00 | 71 | 1012.0 |
| 20260507215532 | 57 | 98 | 4.3 | 7.0 | 0.00 | 0.00 | 0.00 | 70 | 1012.0 |
| 20260507215019 | 57 | 60 | 4.3 | 8.7 | 0.00 | 0.00 | 0.00 | 70 | 1012.0 |
| 20260507214644 | 57 | 68 | 4.3 | 8.7 | 0.00 | 0.00 | 0.00 | 71 | 1010.3 |
| 20260507214020 | 57 | 89 | 3.5 | 7.8 | 0.00 | 0.00 | 0.00 | 71 | 1011.9 |
| 20260507213523 | 57 | 65 | 3.5 | 8.7 | 0.00 | 0.00 | 0.00 | 72 | 1011.9 |
| 20260507213047 | 57 | 65 | 4.3 | 8.7 | 0.00 | 0.00 | 0.00 | 72 | 1011.9 |
| 20260507212530 | 57 | 50 | 5.2 | 8.7 | 0.00 | 0.00 | 0.00 | 73 | 1011.8 |
| 20260507211535 | 57 | 81 | 3.5 | 8.7 | 0.00 | 0.00 | 0.00 | 75 | 1011.8 |
| 20260507211018 | 57 | 74 | 5.2 | 8.7 | 0.00 | 0.00 | 0.00 | 75 | 1011.6 |
| 20260507210532 | 57 | 58 | 4.3 | 6.1 | 0.00 | 0.00 | 0.00 | 75 | 1011.5 |
| 20260507205542 | 57 | 51 | 6.1 | 9.6 | 0.00 | 0.00 | 0.00 | 74 | 1011.4 |
| 20260507205037 | 57 | 64 | 4.3 | 8.7 | 0.00 | 0.00 | 0.00 | 74 | 1011.3 |
| 20260507204558 | 57 | 104 | 5.2 | 8.7 | 0.00 | 0.00 | 0.00 | 72 | 1011.3 |
| 20260507204044 | 57 | 79 | 3.5 | 7.0 | 0.00 | 0.00 | 0.00 | 72 | 1011.3 |
| 20260507203529 | 58 | 70 | 4.3 | 6.1 | 0.00 | 0.00 | 0.00 | 71 | 1011.2 |
| 20260507203023 | 58 | 114 | 3.5 | 7.0 | 0.00 | 0.00 | 0.00 | 71 | 1011.0 |
| 20260507202643 | 58 | 84 | 2.6 | 7.0 | 0.00 | 0.00 | 0.00 | 70 | 1009.4 |
| 20260507202017 | 58 | 105 | 2.6 | 7.0 | 0.00 | 0.00 | 0.00 | 69 | 1010.8 |
| 20260507201540 | 58 | 76 | 2.6 | 7.8 | 0.00 | 0.00 | 0.00 | 69 | 1010.7 |
| 20260507201128 | 58 | 131 | 3.5 | 7.8 | 0.00 | 0.00 | 0.00 | 69 | 1009.1 |
| 20260507200521 | 59 | 117 | 3.5 | 7.0 | 0.00 | 0.00 | 0.00 | 68 | 1010.6 |
| 20260507200100 | 59 | 110 | 3.5 | 7.0 | 0.00 | 0.00 | 0.00 | 68 | 1010.4 |
| 20260507195535 | 59 | 134 | 5.2 | 8.7 | 0.00 | 0.00 | 0.00 | 68 | 1010.3 |
| 20260507195029 | 59 | 95 | 6.1 | 8.7 | 0.00 | 0.00 | 0.00 | 68 | 1010.4 |
| 20260507194531 | 59 | 105 | 6.1 | 8.7 | 0.00 | 0.00 | 0.00 | 68 | 1010.3 |
| 20260507194029 | 59 | 105 | 4.3 | 7.0 | 0.00 | 0.00 | 0.00 | 68 | 1010.3 |
| 20260507193531 | 60 | 80 | 3.5 | 7.0 | 0.00 | 0.00 | 0.00 | 68 | 1010.3 |
| 20260507193030 | 60 | 79 | 5.2 | 7.0 | 0.00 | 0.00 | 0.00 | 67 | 1010.2 |
| 20260507192559 | 60 | 70 | 3.5 | 6.1 | 0.00 | 0.00 | 0.00 | 66 | 1010.1 |
| 20260507192036 | 60 | 55 | 2.6 | 6.1 | 0.00 | 0.00 | 0.00 | 65 | 1010.0 |
| 20260507191524 | 60 | 40 | 1.7 | 6.1 | 0.00 | 0.00 | 0.00 | 64 | 1010.0 |
| 20260507191041 | 60 | 65 | 1.7 | 10.4 | 0.00 | 0.00 | 0.00 | 64 | 1009.9 |
| 20260507190525 | 60 | 72 | 5.2 | 10.4 | 0.00 | 0.00 | 0.00 | 64 | 1009.7 |
| 20260507190048 | 61 | 129 | 4.3 | 10.4 | 0.00 | 0.00 | 0.00 | 63 | 1009.7 |
| 20260507185609 | 61 | 139 | 7.8 | 19.1 | 0.00 | 0.00 | 0.00 | 62 | 1007.9 |
| 20260507185042 | 61 | 129 | 11.3 | 19.1 | 0.00 | 0.00 | 0.00 | 61 | 1009.5 |
| 20260507184534 | 61 | 132 | 7.0 | 13.0 | 0.00 | 0.00 | 0.00 | 61 | 1009.3 |
| 20260507184107 | 61 | 114 | 6.1 | 11.3 | 0.00 | 0.00 | 0.00 | 61 | 1007.7 |
| 20260507183527 | 61 | 129 | 7.8 | 18.2 | 0.00 | 0.00 | 0.00 | 60 | 1009.2 |
| 20260507183033 | 61 | 133 | 11.3 | 18.2 | 0.00 | 0.00 | 0.00 | 60 | 1009.0 |
| 20260507182540 | 62 | 134 | 12.2 | 18.2 | 0.00 | 0.00 | 0.00 | 60 | 1009.1 |
| 20260507182023 | 62 | 163 | 11.3 | 18.2 | 0.00 | 0.00 | 0.00 | 59 | 1009.1 |
| 20260507181542 | 62 | 136 | 11.3 | 18.2 | 0.00 | 0.00 | 0.00 | 59 | 1008.9 |
| 20260507181019 | 63 | 54 | 9.6 | 17.4 | 0.00 | 0.00 | 0.00 | 59 | 1008.8 |
| 20260507180531 | 64 | 131 | 12.2 | 17.4 | 0.00 | 0.00 | 0.00 | 57 | 1008.7 |
| 20260507180051 | 65 | 114 | 7.8 | 14.8 | 0.00 | 0.00 | 0.00 | 52 | 1008.8 |
| 20260507175526 | 65 | 57 | 5.2 | 8.7 | 0.00 | 0.00 | 0.00 | 48 | 1008.6 |
| 20260507175042 | 65 | 56 | 3.5 | 7.0 | 0.00 | 0.00 | 0.00 | 50 | 1008.5 |
| 20260507174540 | 65 | 129 | 5.2 | 7.0 | 0.00 | 0.00 | 0.00 | 51 | 1008.6 |
| 20260507174049 | 65 | 75 | 3.5 | 8.7 | 0.00 | 0.00 | 0.00 | 51 | 1008.5 |
| 20260507173525 | 65 | 91 | 5.2 | 8.7 | 0.00 | 0.00 | 0.00 | 51 | 1008.6 |
| 20260507173030 | 65 | 91 | 3.5 | 5.2 | 0.00 | 0.00 | 0.00 | 51 | 1008.5 |
| 20260507172607 | 65 | 93 | 5.2 | 6.1 | 0.00 | 0.00 | 0.00 | 50 | 1006.8 |
| 20260507172116 | 65 | 81 | 3.5 | 8.7 | 0.00 | 0.00 | 0.00 | 53 | 1006.8 |
| 20260507171533 | 65 | 120 | 5.2 | 9.6 | 0.00 | 0.00 | 0.00 | 51 | 1008.5 |
| 20260507171024 | 65 | 69 | 6.1 | 9.6 | 0.00 | 0.00 | 0.00 | 53 | 1008.4 |
| 20260507170559 | 65 | 74 | 7.0 | 9.6 | 0.00 | 0.00 | 0.00 | 53 | 1008.4 |
| 20260507170046 | 66 | 56 | 5.2 | 8.7 | 0.00 | 0.00 | 0.00 | 52 | 1008.4 |
| 20260507165558 | 66 | 53 | 5.2 | 9.6 | 0.00 | 0.00 | 0.00 | 50 | 1008.4 |
| 20260507165044 | 67 | 67 | 5.2 | 9.6 | 0.00 | 0.00 | 0.00 | 48 | 1008.3 |
| 20260507164628 | 67 | 76 | 4.3 | 9.6 | 0.00 | 0.00 | 0.00 | 47 | 1006.7 |
| 20260507164041 | 67 | 114 | 3.5 | 9.6 | 0.00 | 0.00 | 0.00 | 46 | 1008.3 |
| 20260507163523 | 67 | 148 | 4.3 | 10.4 | 0.00 | 0.00 | 0.00 | 45 | 1008.2 |
| 20260507163022 | 68 | 121 | 5.2 | 10.4 | 0.00 | 0.00 | 0.00 | 44 | 1008.2 |
| 20260507162114 | 69 | 107 | 5.2 | 7.8 | 0.00 | 0.00 | 0.00 | 41 | 1006.6 |
| 20260507161629 | 70 | 141 | 2.6 | 7.0 | 0.00 | 0.00 | 0.00 | 40 | 1006.5 |
| 20260507161043 | 71 | 57 | 0.9 | 5.2 | 0.00 | 0.00 | 0.00 | 37 | 1008.2 |
| 20260507160055 | 71 | 290 | 0.9 | 8.7 | 0.00 | 0.00 | 0.00 | 37 | 1008.2 |
| 20260507155609 | 70 | 292 | 0.9 | 8.7 | 0.00 | 0.00 | 0.00 | 38 | 1006.4 |
| 20260507155042 | 70 | 265 | 0.9 | 9.6 | 0.00 | 0.00 | 0.00 | 39 | 1008.1 |
| 20260507154522 | 69 | 250 | 7.0 | 9.6 | 0.00 | 0.00 | 0.00 | 38 | 1008.1 |
| 20260507154022 | 70 | 265 | 0.9 | 9.6 | 0.00 | 0.00 | 0.00 | 38 | 1008.1 |
| 20260507153544 | 69 | 223 | 1.7 | 10.4 | 0.00 | 0.00 | 0.00 | 40 | 1008.1 |
| 20260507153028 | 68 | 216 | 2.6 | 10.4 | 0.00 | 0.00 | 0.00 | 39 | 1008.2 |
| 20260507152533 | 69 | 262 | 7.8 | 13.0 | 0.00 | 0.00 | 0.00 | 38 | 1008.3 |
| 20260507152021 | 69 | 277 | 6.1 | 10.4 | 0.00 | 0.00 | 0.00 | 38 | 1008.3 |
| 20260507151531 | 69 | 211 | 1.7 | 7.0 | 0.00 | 0.00 | 0.00 | 39 | 1008.4 |
| 20260507151026 | 69 | 247 | 0.0 | 7.8 | 0.00 | 0.00 | 0.00 | 40 | 1008.4 |
| 20260507150521 | 68 | 231 | 5.2 | 9.6 | 0.00 | 0.00 | 0.00 | 39 | 1008.4 |
| 20260507150107 | 69 | 249 | 7.0 | 9.6 | 0.00 | 0.00 | 0.00 | 38 | 1008.4 |
| 20260507145532 | 69 | 260 | 2.6 | 6.1 | 0.00 | 0.00 | 0.00 | 38 | 1008.3 |
| 20260507145028 | 69 | 231 | 4.3 | 10.4 | 0.00 | 0.00 | 0.00 | 37 | 1008.4 |
| 20260507144532 | 69 | 234 | 4.3 | 10.4 | 0.00 | 0.00 | 0.00 | 37 | 1008.5 |
| 20260507144123 | 69 | 310 | 7.0 | 8.7 | 0.00 | 0.00 | 0.00 | 37 | 1006.9 |
| 20260507143604 | 69 | 198 | 4.3 | 8.7 | 0.00 | 0.00 | 0.00 | 37 | 1008.6 |
| 20260507143043 | 69 | 267 | 6.1 | 8.7 | 0.00 | 0.00 | 0.00 | 37 | 1008.7 |
| 20260507142535 | 68 | 123 | 0.0 | 8.7 | 0.00 | 0.00 | 0.00 | 38 | 1008.8 |
| 20260507142022 | 69 | 214 | 4.3 | 11.3 | 0.00 | 0.00 | 0.00 | 36 | 1008.8 |
| 20260507141525 | 69 | 285 | 6.1 | 11.3 | 0.00 | 0.00 | 0.00 | 34 | 1008.9 |
| 20260507141028 | 70 | 224 | 7.8 | 10.4 | 0.00 | 0.00 | 0.00 | 34 | 1008.9 |
| 20260507140544 | 70 | 159 | 4.3 | 11.3 | 0.00 | 0.00 | 0.00 | 36 | 1008.8 |
| 20260507140101 | 70 | 229 | 4.3 | 11.3 | 0.00 | 0.00 | 0.00 | 37 | 1008.9 |
| 20260507135604 | 69 | 127 | 6.1 | 13.0 | 0.00 | 0.00 | 0.00 | 36 | 1007.4 |
| 20260507134537 | 68 | 281 | 1.7 | 13.0 | 0.00 | 0.00 | 0.00 | 39 | 1009.0 |
| 20260507134119 | 68 | 224 | 8.7 | 13.0 | 0.00 | 0.00 | 0.00 | 38 | 1007.5 |
| 20260507133529 | 67 | 326 | 2.6 | 9.6 | 0.00 | 0.00 | 0.00 | 40 | 1009.0 |
| 20260507133019 | 67 | 222 | 4.3 | 9.6 | 0.00 | 0.00 | 0.00 | 41 | 1009.1 |
| 20260507132043 | 68 | 229 | 0.9 | 7.8 | 0.00 | 0.00 | 0.00 | 40 | 1009.2 |
| 20260507131539 | 68 | 125 | 5.2 | 9.6 | 0.00 | 0.00 | 0.00 | 41 | 1009.4 |
| 20260507131027 | 66 | 184 | 7.0 | 9.6 | 0.00 | 0.00 | 0.00 | 43 | 1009.5 |
| 20260507130534 | 66 | 262 | 5.2 | 7.8 | 0.00 | 0.00 | 0.00 | 44 | 1009.4 |
| 20260507130106 | 66 | 288 | 4.3 | 11.3 | 0.00 | 0.00 | 0.00 | 44 | 1009.3 |